Location: L�Adrech
(44.2500°N, 6.4167°E)
Time: 01:31:36
(UTC+00:00)

Meteor 2-17 Rocket - Pass Details

Date: 07 June 2020
Orbit: 934 x 957 km, 82.5° (Epoch: 15 July)

Event Time Altitude Azimuth Distance (km) Brightness Sun altitude
Exits shadow 01:42:53 25° 202° (SSW) 1,805 5.3 -16.7°
Maximum altitude 01:46:33 70° 280° (W) 1,013 4.5 -16.4°
Drops below altitude 10° 01:52:40 10° 4° (N) 2,679 7.8 -15.8°
Sets 01:55:11 0° 7° (N) 3,625 8.7 -15.5°
